Time,TemperatureF,DewpointF,PressureIn,WindDirection,WindDirectionDegrees,WindSpeedMPH,WindSpeedGustMPH,Humidity,HourlyPrecipIn,Conditions,Clouds,dailyrainin,SoftwareType,DateUTC
2013-09-15 00:03:00,82.4,76.0,30.00,ENE,67,0.0,2.0,82,0.00,,,0.00,weatherlink.com 1.10,2013-09-15 04:03:00,
2013-09-15 00:18:00,82.3,76.0,30.00,ENE,67,0.0,1.0,82,0.00,,,0.00,weatherlink.com 1.10,2013-09-15 04:18:00,
2013-09-15 00:33:00,82.1,77.0,30.00,ENE,67,0.0,0.0,84,0.00,,,0.00,weatherlink.com 1.10,2013-09-15 04:33:00,
2013-09-15 00:48:00,81.9,77.0,30.01,ENE,67,0.0,0.0,85,0.00,,,0.00,weatherlink.com 1.10,2013-09-15 04:48:00,
2013-09-15 01:03:00,81.7,78.0,30.00,ENE,67,0.0,1.0,87,0.00,,,0.00,weatherlink.com 1.10,2013-09-15 05:03:00,
2013-09-15 01:18:00,81.5,77.0,30.00,ENE,67,0.0,0.0,86,0.00,,,0.00,weatherlink.com 1.10,2013-09-15 05:18:00,
2013-09-15 01:33:00,81.5,77.0,30.00,ENE,67,0.0,1.0,86,0.00,,,0.00,weatherlink.com 1.10,2013-09-15 05:33:00,
2013-09-15 01:48:00,81.5,77.0,30.00,ENE,67,0.0,2.0,86,0.00,,,0.00,weatherlink.com 1.10,2013-09-15 05:48:00,
2013-09-15 02:03:00,81.6,77.0,29.99,ENE,67,0.0,1.0,86,0.00,,,0.00,weatherlink.com 1.10,2013-09-15 06:03:00,
2013-09-15 02:18:00,81.6,77.0,30.00,ENE,68,0.0,9.0,87,0.00,,,0.00,weatherlink.com 1.10,2013-09-15 06:18:00,
2013-09-15 02:33:00,81.6,76.0,29.99,ENE,71,2.0,10.0,84,0.00,,,0.00,weatherlink.com 1.10,2013-09-15 06:33:00,
2013-09-15 02:48:00,81.3,76.0,30.00,ENE,57,0.0,7.0,83,0.00,,,0.00,weatherlink.com 1.10,2013-09-15 06:48:00,
2013-09-15 03:03:00,81.1,76.0,29.99,ENE,69,0.0,5.0,84,0.00,,,0.00,weatherlink.com 1.10,2013-09-15 07:03:00,
2013-09-15 03:18:00,81.1,76.0,29.98,East,95,6.0,6.0,84,0.00,,,0.00,weatherlink.com 1.10,2013-09-15 07:18:00,
2013-09-15 03:33:00,81.3,75.0,29.97,East,82,2.0,15.0,81,0.00,,,0.00,weatherlink.com 1.10,2013-09-15 07:33:00,
2013-09-15 03:48:00,80.8,73.0,29.96,ENE,61,1.0,6.0,77,0.00,,,0.00,weatherlink.com 1.10,2013-09-15 07:48:00,
2013-09-15 04:03:00,80.4,73.0,29.96,East,80,0.0,5.0,78,0.00,,,0.00,weatherlink.com 1.10,2013-09-15 08:03:00,
2013-09-15 04:18:00,79.6,73.0,29.96,East,81,1.0,3.0,79,0.00,,,0.00,weatherlink.com 1.10,2013-09-15 08:18:00,
2013-09-15 04:33:00,79.1,73.0,29.96,SE,140,0.0,4.0,81,0.00,,,0.00,weatherlink.com 1.10,2013-09-15 08:33:00,
2013-09-15 04:48:00,78.8,74.0,29.96,SE,140,0.0,0.0,84,0.00,,,0.00,weatherlink.com 1.10,2013-09-15 08:48:00,
2013-09-15 05:03:00,78.6,74.0,29.97,ESE,118,0.0,2.0,86,0.00,,,0.00,weatherlink.com 1.10,2013-09-15 09:03:00,
2013-09-15 05:18:00,78.4,74.0,29.96,ESE,118,0.0,0.0,87,0.00,,,0.00,weatherlink.com 1.10,2013-09-15 09:18:00,
2013-09-15 05:33:00,78.0,75.0,29.97,ESE,118,0.0,1.0,89,0.00,,,0.00,weatherlink.com 1.10,2013-09-15 09:33:00,
2013-09-15 05:48:00,78.0,75.0,29.98,ESE,117,0.0,0.0,89,0.00,,,0.00,weatherlink.com 1.10,2013-09-15 09:48:00,
2013-09-15 06:03:00,77.6,75.0,29.99,ESE,117,0.0,1.0,90,0.00,,,0.00,weatherlink.com 1.10,2013-09-15 10:03:00,
2013-09-15 06:19:00,77.6,75.0,29.99,North,360,0.0,2.0,90,0.00,,,0.00,weatherlink.com 1.10,2013-09-15 10:19:00,
2013-09-15 06:34:00,77.5,75.0,30.00,North,360,0.0,0.0,91,0.00,,,0.00,weatherlink.com 1.10,2013-09-15 10:34:00,
2013-09-15 06:49:00,77.2,75.0,30.00,North,360,0.0,0.0,91,0.00,,,0.00,weatherlink.com 1.10,2013-09-15 10:49:00,
2013-09-15 07:04:00,76.9,75.0,30.01,North,360,0.0,0.0,92,0.00,,,0.00,weatherlink.com 1.10,2013-09-15 11:04:00,
2013-09-15 07:19:00,76.9,75.0,30.01,North,360,1.0,3.0,92,0.00,,,0.00,weatherlink.com 1.10,2013-09-15 11:19:00,
2013-09-15 07:34:00,77.2,75.0,30.02,North,360,1.0,3.0,92,0.00,,,0.00,weatherlink.com 1.10,2013-09-15 11:34:00,
2013-09-15 07:49:00,77.8,75.0,30.02,North,360,0.0,0.0,91,0.00,,,0.00,weatherlink.com 1.10,2013-09-15 11:49:00,
2013-09-15 08:04:00,78.4,76.0,30.02,North,360,0.0,0.0,91,0.00,,,0.00,weatherlink.com 1.10,2013-09-15 12:04:00,
2013-09-15 08:19:00,80.0,77.0,30.02,North,360,0.0,0.0,89,0.00,,,0.00,weatherlink.com 1.10,2013-09-15 12:19:00,
2013-09-15 08:34:00,82.3,77.0,30.02,NE,49,2.0,5.0,84,0.00,,,0.00,weatherlink.com 1.10,2013-09-15 12:34:00,
2013-09-15 08:49:00,83.4,78.0,30.03,NE,46,3.0,9.0,83,0.00,,,0.00,weatherlink.com 1.10,2013-09-15 12:49:00,
2013-09-15 09:04:00,83.4,77.0,30.03,NE,50,4.0,10.0,82,0.00,,,0.00,weatherlink.com 1.10,2013-09-15 13:04:00,
2013-09-15 09:19:00,83.6,78.0,30.04,ENE,60,3.0,11.0,83,0.00,,,0.00,weatherlink.com 1.10,2013-09-15 13:19:00,
2013-09-15 09:34:00,84.2,78.0,30.04,ENE,62,3.0,7.0,82,0.00,,,0.00,weatherlink.com 1.10,2013-09-15 13:34:00,
2013-09-15 09:49:00,85.0,79.0,30.06,ENE,71,3.0,9.0,81,0.00,,,0.00,weatherlink.com 1.10,2013-09-15 13:49:00,
2013-09-15 10:04:00,86.1,79.0,30.05,ENE,71,7.0,10.0,79,0.00,,,0.00,weatherlink.com 1.10,2013-09-15 14:04:00,
2013-09-15 10:19:00,86.9,79.0,30.06,ENE,63,7.0,14.0,77,0.00,,,0.00,weatherlink.com 1.10,2013-09-15 14:19:00,
2013-09-15 10:34:00,86.5,79.0,30.07,ENE,69,8.0,12.0,79,0.00,,,0.00,weatherlink.com 1.10,2013-09-15 14:34:00,
2013-09-15 10:49:00,86.8,79.0,30.07,ENE,61,9.0,17.0,77,0.00,,,0.00,weatherlink.com 1.10,2013-09-15 14:49:00,
2013-09-15 11:04:00,87.4,79.0,30.06,NE,45,11.0,18.0,76,0.00,,,0.00,weatherlink.com 1.10,2013-09-15 15:04:00,
2013-09-15 11:19:00,85.6,78.0,30.06,East,92,6.0,14.0,79,0.00,,,0.00,weatherlink.com 1.10,2013-09-15 15:19:00,
2013-09-15 11:34:00,83.6,78.0,30.08,ENE,59,9.0,10.0,83,0.00,,,0.00,weatherlink.com 1.10,2013-09-15 15:34:00,
2013-09-15 11:49:00,82.6,78.0,30.07,ENE,75,7.0,11.0,86,0.00,,,0.00,weatherlink.com 1.10,2013-09-15 15:49:00,
2013-09-15 12:04:00,81.5,78.0,30.07,East,80,1.0,7.0,89,0.00,,,0.00,weatherlink.com 1.10,2013-09-15 16:04:00,
2013-09-15 12:19:00,81.3,78.0,30.08,East,83,5.0,8.0,90,0.00,,,0.00,weatherlink.com 1.10,2013-09-15 16:19:00,
2013-09-15 12:34:00,81.5,78.0,30.06,ENE,77,2.0,8.0,90,0.00,,,0.00,weatherlink.com 1.10,2013-09-15 16:34:00,
2013-09-15 12:49:00,81.6,77.0,30.07,ESE,115,4.0,8.0,87,0.00,,,0.00,weatherlink.com 1.10,2013-09-15 16:49:00,
2013-09-15 13:04:00,82.0,77.0,30.07,ENE,69,0.0,7.0,85,0.00,,,0.00,weatherlink.com 1.10,2013-09-15 17:04:00,
2013-09-15 13:19:00,82.3,77.0,30.06,ENE,75,2.0,7.0,85,0.00,,,0.00,weatherlink.com 1.10,2013-09-15 17:19:00,
2013-09-15 13:34:00,82.5,78.0,30.04,East,96,3.0,7.0,87,0.00,,,0.00,weatherlink.com 1.10,2013-09-15 17:34:00,
2013-09-15 13:49:00,82.2,79.0,30.04,ENE,78,3.0,5.0,89,0.00,,,0.00,weatherlink.com 1.10,2013-09-15 17:49:00,
2013-09-15 14:04:00,82.0,79.0,30.04,East,93,1.0,6.0,89,0.00,,,0.00,weatherlink.com 1.10,2013-09-15 18:04:00,
2013-09-15 14:19:00,82.1,79.0,30.04,East,87,0.0,7.0,89,0.00,,,0.00,weatherlink.com 1.10,2013-09-15 18:19:00,
2013-09-15 14:34:00,82.4,79.0,30.04,ENE,69,2.0,7.0,88,0.00,,,0.00,weatherlink.com 1.10,2013-09-15 18:34:00,
2013-09-15 14:49:00,83.0,79.0,30.03,ENE,78,0.0,5.0,88,0.00,,,0.00,weatherlink.com 1.10,2013-09-15 18:49:00,
2013-09-15 15:04:00,83.6,79.0,30.03,NE,53,3.0,4.0,87,0.00,,,0.00,weatherlink.com 1.10,2013-09-15 19:04:00,
2013-09-15 15:19:00,83.7,79.0,30.04,SE,128,3.0,4.0,86,0.00,,,0.00,weatherlink.com 1.10,2013-09-15 19:19:00,
2013-09-15 15:34:00,83.3,79.0,30.03,ESE,103,0.0,4.0,87,0.00,,,0.00,weatherlink.com 1.10,2013-09-15 19:34:00,
2013-09-15 15:49:00,83.5,79.0,30.03,ESE,123,0.0,4.0,87,0.00,,,0.00,weatherlink.com 1.10,2013-09-15 19:49:00,
2013-09-15 16:04:00,84.0,79.0,30.02,East,98,1.0,5.0,85,0.00,,,0.00,weatherlink.com 1.10,2013-09-15 20:04:00,
2013-09-15 16:19:00,84.2,78.0,30.02,ENE,77,3.0,9.0,81,0.00,,,0.00,weatherlink.com 1.10,2013-09-15 20:19:00,
2013-09-15 16:34:00,84.3,77.0,30.01,NE,50,3.0,7.0,79,0.00,,,0.00,weatherlink.com 1.10,2013-09-15 20:34:00,
2013-09-15 16:49:00,84.5,78.0,30.01,ENE,67,0.0,4.0,80,0.00,,,0.00,weatherlink.com 1.10,2013-09-15 20:49:00,
2013-09-15 17:04:00,84.7,78.0,30.02,ENE,59,0.0,6.0,80,0.00,,,0.00,weatherlink.com 1.10,2013-09-15 21:04:00,
2013-09-15 17:19:00,85.0,78.0,30.02,ENE,78,0.0,8.0,80,0.00,,,0.00,weatherlink.com 1.10,2013-09-15 21:19:00,
2013-09-15 17:34:00,85.2,79.0,30.03,East,101,5.0,10.0,81,0.00,,,0.00,weatherlink.com 1.10,2013-09-15 21:34:00,
2013-09-15 17:49:00,85.0,77.0,30.02,South,175,5.0,10.0,78,0.00,,,0.00,weatherlink.com 1.10,2013-09-15 21:49:00,
2013-09-15 18:04:00,83.6,79.0,30.04,ESE,119,0.0,5.0,85,0.00,,,0.00,weatherlink.com 1.10,2013-09-15 22:04:00,
2013-09-15 18:20:00,80.4,76.0,30.08,SE,132,9.0,21.0,85,0.15,,,0.15,weatherlink.com 1.10,2013-09-15 22:20:00,
2013-09-15 18:35:00,74.4,72.0,30.08,North,355,4.0,12.0,91,0.65,,,0.66,weatherlink.com 1.10,2013-09-15 22:35:00,
2013-09-15 18:50:00,73.8,72.0,30.08,North,5,3.0,10.0,95,0.96,,,0.96,weatherlink.com 1.10,2013-09-15 22:50:00,
2013-09-15 19:05:00,74.4,73.0,30.08,North,5,0.0,5.0,95,0.99,,,0.99,weatherlink.com 1.10,2013-09-15 23:05:00,
2013-09-15 19:20:00,74.5,73.0,30.06,North,5,1.0,4.0,95,0.82,,,0.99,weatherlink.com 1.10,2013-09-15 23:20:00,
2013-09-15 19:35:00,74.4,73.0,30.08,North,5,0.0,2.0,96,0.31,,,0.99,weatherlink.com 1.10,2013-09-15 23:35:00,
2013-09-15 19:50:00,74.4,73.0,30.08,North,5,0.0,1.0,96,0.05,,,1.01,weatherlink.com 1.10,2013-09-15 23:50:00,
2013-09-15 20:05:00,74.7,74.0,30.10,North,5,0.0,1.0,97,0.06,,,1.05,weatherlink.com 1.10,2013-09-16 00:05:00,
2013-09-15 20:20:00,75.0,74.0,30.10,North,5,2.0,4.0,97,0.07,,,1.06,weatherlink.com 1.10,2013-09-16 00:20:00,
2013-09-15 20:35:00,75.4,75.0,30.10,North,5,0.0,4.0,97,0.09,,,1.08,weatherlink.com 1.10,2013-09-16 00:35:00,
2013-09-15 20:50:00,75.4,75.0,30.09,North,5,1.0,4.0,97,0.09,,,1.10,weatherlink.com 1.10,2013-09-16 00:50:00,
2013-09-15 21:05:00,76.4,76.0,30.09,North,355,0.0,6.0,98,0.07,,,1.12,weatherlink.com 1.10,2013-09-16 01:05:00,
2013-09-15 21:20:00,76.4,76.0,30.08,WNW,298,3.0,5.0,98,0.07,,,1.13,weatherlink.com 1.10,2013-09-16 01:20:00,
2013-09-15 21:35:00,76.6,76.0,30.08,North,349,1.0,3.0,98,0.06,,,1.14,weatherlink.com 1.10,2013-09-16 01:35:00,
2013-09-15 21:50:00,76.7,76.0,30.07,NNW,348,0.0,1.0,98,0.04,,,1.14,weatherlink.com 1.10,2013-09-16 01:50:00,
2013-09-15 22:05:00,76.7,76.0,30.06,NNW,348,0.0,5.0,98,0.02,,,1.14,weatherlink.com 1.10,2013-09-16 02:05:00,
2013-09-15 22:20:00,76.6,76.0,30.06,NNE,17,1.0,4.0,98,0.01,,,1.14,weatherlink.com 1.10,2013-09-16 02:20:00,
2013-09-15 22:35:00,76.4,76.0,30.06,NNE,28,3.0,4.0,98,0.00,,,1.14,weatherlink.com 1.10,2013-09-16 02:35:00,
2013-09-15 22:50:00,76.3,76.0,30.06,NNE,22,0.0,2.0,98,0.00,,,1.14,weatherlink.com 1.10,2013-09-16 02:50:00,
2013-09-15 23:05:00,76.4,76.0,30.06,NNE,22,0.0,1.0,98,0.00,,,1.14,weatherlink.com 1.10,2013-09-16 03:05:00,
2013-09-15 23:20:00,76.6,76.0,30.06,NNE,22,0.0,2.0,98,0.00,,,1.14,weatherlink.com 1.10,2013-09-16 03:20:00,
2013-09-15 23:35:00,76.9,76.0,30.05,NNE,22,0.0,1.0,98,0.00,,,1.14,weatherlink.com 1.10,2013-09-16 03:35:00,
2013-09-15 23:50:00,77.1,77.0,30.05,NNE,22,0.0,2.0,98,0.01,,,1.15,weatherlink.com 1.10,2013-09-16 03:50:00,